AIX395 VIDP-VABB

Flight info

Callsign AIX395
Flight time N/A
Altitude 36000
Route DUDUM7G DUDUM Q2 AKTIV IGBAN2A
Aircraft B38M/M-SDE1FGHILORVWXY/HB1

Departure

Time 2026-04-29 10:47
Airport Indira Gandhi International Airport (VIDP)

Arrival

Time N/A
Airport Chhatrapati Shivaji Maharaj International Airport (VABB)
Time Latitude Longitude Altitude Speed Heading
2026-04-29 09:58 28.55889 77.08274 776 ft 0 kts 59°
2026-04-29 10:33 28.55888 77.08271 776 ft 3 kts 59°
2026-04-29 10:33 28.55878 77.08253 776 ft 3 kts 59°
2026-04-29 10:34 28.55869 77.08235 776 ft 3 kts 56°
2026-04-29 10:34 28.55862 77.08216 776 ft 3 kts 85°
2026-04-29 10:34 28.55864 77.08195 776 ft 3 kts 116°
2026-04-29 10:34 28.55874 77.08177 776 ft 3 kts 124°
2026-04-29 10:35 28.55884 77.08160 776 ft 3 kts 124°
2026-04-29 10:35 28.55894 77.08144 776 ft 3 kts 137°
2026-04-29 10:35 28.55900 77.08138 776 ft 0 kts 152°
2026-04-29 10:41 28.55873 77.08154 769 ft 10 kts 152°
2026-04-29 10:41 28.55773 77.08168 776 ft 18 kts 194°
2026-04-29 10:41 28.55695 77.08095 776 ft 16 kts 239°
2026-04-29 10:42 28.55635 77.07982 776 ft 18 kts 239°
2026-04-29 10:42 28.55633 77.07856 776 ft 9 kts 286°
2026-04-29 10:42 28.55630 77.07780 776 ft 11 kts 232°
2026-04-29 10:42 28.55548 77.07741 775 ft 15 kts 193°
2026-04-29 10:43 28.55440 77.07713 775 ft 17 kts 192°
2026-04-29 10:43 28.55319 77.07679 775 ft 19 kts 195°
2026-04-29 10:43 28.55185 77.07638 775 ft 21 kts 194°
2026-04-29 10:43 28.55056 77.07601 773 ft 12 kts 194°
2026-04-29 10:44 28.55007 77.07587 772 ft 0 kts 194°
2026-04-29 10:45 28.54995 77.07584 771 ft 6 kts 194°
2026-04-29 10:45 28.54903 77.07558 766 ft 21 kts 193°
2026-04-29 10:45 28.54854 77.07585 764 ft 0 kts 104°
2026-04-29 10:45 28.54852 77.07591 764 ft 0 kts 104°
2026-04-29 10:46 28.54849 77.07606 764 ft 4 kts 104°
2026-04-29 10:46 28.54834 77.07673 764 ft 21 kts 104°
2026-04-29 10:46 28.54739 77.08105 764 ft 91 kts 104°
2026-04-29 10:46 28.54534 77.09040 764 ft 151 kts 103°
2026-04-29 10:47 28.54238 77.10363 862 ft 192 kts 104°
2026-04-29 10:47 28.53868 77.11871 1560 ft 199 kts 103°
2026-04-29 10:47 28.53457 77.13376 2423 ft 199 kts 111°
2026-04-29 10:47 28.52639 77.14727 2754 ft 224 kts 142°
2026-04-29 10:48 28.51124 77.15379 3052 ft 247 kts 180°
2026-04-29 10:48 28.49424 77.14981 3670 ft 254 kts 202°
2026-04-29 10:48 28.47772 77.14197 4362 ft 262 kts 203°
2026-04-29 10:48 28.46019 77.13443 4874 ft 277 kts 200°
2026-04-29 10:49 28.44172 77.12770 5675 ft 279 kts 198°
2026-04-29 10:49 28.42296 77.12168 6424 ft 284 kts 196°
2026-04-29 10:49 28.40374 77.11606 6611 ft 285 kts 195°
2026-04-29 10:49 28.38444 77.11078 6658 ft 285 kts 194°
2026-04-29 10:50 28.36513 77.10565 6663 ft 285 kts 194°
2026-04-29 10:50 28.34605 77.10069 6671 ft 285 kts 194°
2026-04-29 10:50 28.32671 77.09565 6672 ft 286 kts 197°
2026-04-29 10:50 28.30947 77.08501 7365 ft 281 kts 223°
2026-04-29 10:51 28.29510 77.06988 8124 ft 285 kts 226°
2026-04-29 10:51 28.28064 77.05431 8906 ft 287 kts 226°
2026-04-29 10:51 28.26617 77.03851 9703 ft 290 kts 227°
2026-04-29 10:51 28.25148 77.02232 10340 ft 298 kts 227°